This demonstration page uses our WeatherBlox Daily Observations layout. Learn more.

Left ArrowRight Arrow

Hourly Observations for October 10, 2019

Temp ( °F °C ) Dew Point ( °F °C ) Humidity (%) Winds ( mph kmh ) Pressure ( in mb ) Visibility ( mi km ) Precip ( " mm )
12:53 am 00:53 Mostly Clear 73 22.8 48 8.9 41 41 SE 9 15 29.65 1004 10 16 0.00 0.00
1:53 am 01:53 Partly Cloudy 70 21.1 49 9.4 47 47 SSE 3 6 29.65 1004 10 16 0.00 0.00
2:53 am 02:53 Mostly Clear 68 20 51 10.6 55 55 SE 7 11 29.65 1004 10 16 0.00 0.00
3:53 am 03:53 Clear 67 19.4 53 11.7 61 61 SSE 5 7 29.64 1004 10 16 0.00 0.00
4:53 am 04:53 Clear 63 17.2 51 10.6 65 65 S 7 11 29.65 1004 10 16 0.00 0.00
5:53 am 05:53 Clear 64 17.8 52 11.1 65 65 SSW 3 6 29.67 1005 10 16 0.00 0.00
6:53 am 06:53 Clear 62 16.7 53 11.7 73 73 S 6 9 29.69 1005 10 16 0.00 0.00
7:53 am 07:53 Sunny 61 16.1 55 12.8 81 81 SSE 6 9 29.72 1007 10 16 0.00 0.00
8:53 am 08:53 Sunny 65 18.3 57 13.9 76 76 SSE 8 13 29.74 1007 10 16 0.00 0.00
9:53 am 09:53 Sunny 73 22.8 53 11.7 50 50 SSW 6 9 29.75 1008 10 16 0.00 0.00
10:53 am 10:53 Sunny 82 27.8 44 6.7 26 26 WSW 12 19 29.75 1007 10 16 0.00 0.00
11:53 am 11:53 Sunny 86 30 44 6.7 23 23 W 18 30 29.75 1007 10 16 0.00 0.00
12:53 pm 12:53 Sunny 88 31.1 41 5 19 19 WSW 17 28 29.72 1007 10 16 0.00 0.00
1:53 pm 13:53 Sunny 89 31.7 35 1.7 15 15 W 21 33 29.70 1006 10 16 0.00 0.00
2:53 pm 14:53 Sunny 90 32.2 37 2.8 15 15 SW 18 30 29.67 1005 10 16 0.00 0.00
3:53 pm 15:53 Sunny 90 32.2 34 1.1 14 14 W 15 24 29.65 1004 10 16 0.00 0.00
4:53 pm 16:53 Sunny 91 32.8 33 0.6 13 13 W 18 30 29.65 1004 10 16 0.00 0.00
5:53 pm 17:53 Sunny 91 32.8 28 -2.2 10 10 W 14 22 29.65 1004 10 16 0.00 0.00
6:53 pm 18:53 Sunny 87 30.6 31 -0.6 13 13 WNW 9 15 29.66 1005 10 16 0.00 0.00
7:53 pm 19:53 Clear 78 25.6 36 2.2 22 22 WNW 10 17 29.70 1006 10 16 0.00 0.00
8:53 pm 20:53 Clear 72 22.2 39 3.9 30 30 NW 9 15 29.73 1007 10 16 0.00 0.00
9:53 pm 21:53 Clear 67 19.4 39 3.9 36 36 NNW 7 11 29.75 1008 10 16 0.00 0.00
10:53 pm 22:53 Clear 65 18.3 39 3.9 39 39 NNE 12 19 29.77 1008 10 16 0.00 0.00
11:53 pm 23:53 Clear 65 18.3 43 6.1 45 45 NE 21 33 29.83 1010 10 16 0.00 0.00

Powered by AerisWeather